Simultaneous Nadir Overpasses (SNOs) Predictions

Prediction of SNOs between METOP-A and NPP Satellite Orbit:

Table of predicted SNOs for the next 14.0 days since TLE Epoch: 5/15/2020
Index Date (METOP-A) Time (METOP-A) Lat,Lon (METOP-A) SZA (METOP-A ) Date (NPP) Time (NPP) Lat,Lon (NPP) SZA (NPP ) Distance(km) Time Diff (sec)
1 05/24/2020 08:54:40 75.89, 33.28 55.30 05/24/2020 08:53:33 75.92, 30.27 55.54 81.46 67
2 05/24/2020 09:45:24 -75.80,-159.70 124.79 05/24/2020 09:44:15 -75.81,-162.04 124.60 63.93 69
3 05/24/2020 10:36:08 75.59, 6.99 55.05 05/24/2020 10:34:56 75.60, 5.94 55.15 29.07 72
4 05/24/2020 11:26:52 -75.49, 174.03 125.04 05/24/2020 11:25:38 -75.49, 173.61 124.99 11.80 74
5 05/24/2020 12:17:33 75.42, -18.84 54.91 05/24/2020 12:16:22 75.42, -18.87 54.92 1.12 71
6 05/24/2020 13:08:15 -75.42, 148.49 125.10 05/24/2020 13:07:06 -75.40, 148.50 125.11 3.13 69
7 05/24/2020 13:58:55 75.40, -44.24 54.88 05/24/2020 13:57:52 75.42, -44.26 54.91 1.99 63
8 05/24/2020 14:49:37 -75.40, 123.08 125.13 05/24/2020 14:48:36 -75.40, 123.11 125.12 0.84 61
9 05/24/2020 15:40:17 75.38, -69.64 54.85 05/24/2020 15:39:21 75.38, -69.50 54.85 3.96 56
10 05/24/2020 16:30:59 -75.38, 97.68 125.16 05/24/2020 16:30:06 -75.41, 97.72 125.12 2.76 53
11 05/24/2020 17:21:38 75.41, -94.90 54.86 05/24/2020 17:20:51 75.38, -94.90 54.85 2.96 47
12 05/24/2020 18:12:20 -75.41, 72.42 125.15 05/24/2020 18:11:36 -75.41, 72.33 125.13 2.59 44
13 05/24/2020 19:02:59 75.39,-120.31 54.83 05/24/2020 19:02:20 75.39,-120.29 54.84 0.55 39
14 05/24/2020 19:53:41 -75.39, 47.02 125.18 05/24/2020 19:53:04 -75.37, 47.09 125.19 2.91 37
15 05/24/2020 20:44:21 75.37,-145.71 54.80 05/24/2020 20:43:50 75.39,-145.68 54.83 2.86 31
16 05/24/2020 21:35:03 -75.37, 21.62 125.21 05/24/2020 21:34:34 -75.38, 21.69 125.20 2.05 29
17 05/24/2020 22:25:42 75.40,-170.97 54.81 05/24/2020 22:25:20 75.40,-171.07 54.83 2.86 22
18 05/24/2020 23:16:24 -75.40, -3.64 125.20 05/24/2020 23:16:04 -75.38, -3.70 125.20 2.62 20
19 05/25/2020 00:07:04 75.38, 163.63 54.78 05/25/2020 00:06:49 75.36, 163.69 54.77 2.61 15
20 05/25/2020 00:57:46 -75.38, -29.04 125.22 05/25/2020 00:57:34 -75.39, -29.09 125.21 1.60 12
21 05/25/2020 01:48:26 75.36, 138.23 54.76 05/25/2020 01:48:19 75.36, 138.30 54.76 1.88 7
22 05/25/2020 02:39:08 -75.36, -54.44 125.25 05/25/2020 02:39:03 -75.34, -54.33 125.27 3.32 5
23 05/25/2020 03:29:47 75.38, 112.97 54.77 05/25/2020 03:29:49 75.37, 112.90 54.75 2.63 2
24 05/25/2020 04:20:30 -75.34, -79.84 125.28 05/25/2020 04:20:33 -75.35, -79.72 125.28 3.40 3
25 05/25/2020 05:11:09 75.36, 87.57 54.74 05/25/2020 05:11:19 75.37, 87.51 54.75 1.95 10
26 05/25/2020 06:01:51 -75.37,-105.10 125.27 05/25/2020 06:02:03 -75.36,-105.11 125.28 1.37 12
27 05/25/2020 06:52:31 75.34, 62.17 54.71 05/25/2020 06:52:48 75.33, 62.27 54.69 2.99 17
28 05/25/2020 07:43:13 -75.35,-130.50 125.30 05/25/2020 07:43:33 -75.36,-130.50 125.29 1.55 20
29 05/25/2020 08:33:53 75.32, 36.77 54.68 05/25/2020 08:34:18 75.34, 36.88 54.68 3.29 25
30 05/25/2020 09:24:34 -75.37,-155.76 125.29 05/25/2020 09:25:03 -75.37,-155.89 125.30 3.98 29
31 05/25/2020 10:15:14 75.35, 11.51 54.69 05/25/2020 10:15:48 75.34, 11.49 54.68 1.24 34
32 05/25/2020 11:05:56 -75.35, 178.84 125.32 05/25/2020 11:06:32 -75.32, 178.86 125.36 3.39 36
33 05/25/2020 11:56:36 75.33, -13.89 54.66 05/25/2020 11:57:18 75.35, -13.90 54.67 1.89 42
34 05/25/2020 12:47:18 -75.33, 153.44 125.34 05/25/2020 12:48:02 -75.33, 153.47 125.36 0.88 44
35 05/25/2020 13:37:58 75.31, -39.29 54.64 05/25/2020 13:38:47 75.31, -39.15 54.61 3.89 49
36 05/25/2020 14:28:40 -75.31, 128.04 125.37 05/25/2020 14:29:32 -75.33, 128.08 125.37 2.48 52
37 05/25/2020 15:19:19 75.34, -64.55 54.65 05/25/2020 15:20:17 75.31, -64.54 54.60 3.07 58
38 05/25/2020 16:10:01 -75.34, 102.78 125.36 05/25/2020 16:11:02 -75.34, 102.69 125.37 2.70 61
39 05/25/2020 17:00:41 75.32, -89.95 54.62 05/25/2020 17:01:47 75.32, -89.93 54.60 0.50 66
40 05/25/2020 17:51:23 -75.32, 77.38 125.39 05/25/2020 17:52:31 -75.30, 77.44 125.44 3.06 68
41 05/25/2020 18:42:03 75.30,-115.35 54.59 05/25/2020 18:43:17 75.32,-115.32 54.59 2.73 74
42 05/25/2020 19:32:47 -75.21, 51.71 125.49 05/25/2020 19:34:00 -75.26, 52.19 125.50 14.80 73
43 05/25/2020 20:23:31 74.99,-141.57 54.34 05/25/2020 20:24:41 75.04,-139.87 54.25 49.11 70
44 05/25/2020 21:14:15 -74.90, 25.50 125.74 05/25/2020 21:15:23 -74.93, 27.77 125.89 65.64 68




NCC Satellite Simultaneous Nadir Overpasses (SNOs) Prediction Service
